Back to catalog

STARLINK-30578

AliveCommunicationsVLEO
NORAD 58093·PAYLOAD·🇺🇸 United States

Launched Oct 18, 2023 from Cape Canaveral Space Force Station

Loading…

Next Passes (next 24 hours)

TLE

FreshSource: CelesTrak SupGP

Epoch: Sep 14, 2026, 22:09 UTC

1 58093C 23160U   26257.92340278  .00042951  00000+0  15559-2 0  2578
2 58093  42.9994  89.0550 0001470 274.5922 249.6985 15.27552859    17

Track STARLINK-30578 in real time with AllMySat

Download on the App Store